Air Resources Laboratory banner image
Air Resources Laboratory web site National Oceanic and Atmospheric Administration (NOAA)

ny zone


NYZ176-178-MAZ016-IL014-TNZ027-NJZ106-GAZ044-MD014-141200-

...Gateway Observations for Charleston International...

CITY           SKY/WX    TMP DP  RH WIND       PRES   REMARKS
Chas Airport   FAIR      73  72  96 S3        30.01R
Seattle        MOCLDY    64  57  78 N5        29.97S
Charlotte      MOCLDY    71  70  96 NW6       30.02R
Dallas DFW     CLOUDY    75  70  84 S10       29.92F
Dallas Love    LGT RAIN  76  70  82 S13       29.94F
Philladelphia  CLOUDY    69  67  93 W6        29.91R FOG
Wash National  FAIR      70  61  73 W5        29.95R
Baltimore      FAIR      67  65  93 W5        29.93R
Miami          MOCLDY    80  76  87 E6        30.05R
Detroit        MOCLDY    67  61  81 SW5       29.99R HAZE
Newark         MOCLDY    67  67 100 CALM      29.88S FOG
Laguardia      FAIR      74  70  87 S6        29.87S
J F K          MOCLDY    73  73 100 S6        29.89R
Boston Logan   FOG       69  68  96 E5        29.92S VSB<1/4
Ft. Lauderdale FAIR      81  78  91 E7        30.05R
Chicago O'Hare FAIR      71  62  73 W6        30.00R
Chicago Midway FAIR      70  63  78 W6        30.00R
Houston Bush   FAIR      75  75 100 S5        29.98S
Houston Hobby  FAIR      77  77 100 CALM      29.97S
Nashville      FAIR      66  62  87 CALM      30.05R
Atlanta        FAIR      69  64  84 W5        30.05R


NYZ176-178-MAZ106-OHZ011-021-055-MIZ076-KYZ091-ILZ014-INZ047-
MNZ060-ONZ431-141200-

...Gateway Observations for Savannah International...

CITY           SKY/WX    TMP DP  RH WIND       PRES   REMARKS
Savannah Arpt  FAIR      73  71  93 SW3       30.03R
Atlanta        FAIR      69  64  84 W5        30.05R
Charlotte      MOCLDY    71  70  96 NW6       30.02R
Dallas DFW     CLOUDY    75  70  84 S10       29.92F
Houston Bush   FAIR      75  75 100 S5        29.98S
Wash National  FAIR      70  61  73 W5        29.95R
Wash Dulles    FAIR      66  61  84 NW3       29.96R
Baltimore      FAIR      67  65  93 W5        29.93R
Philadelphia   CLOUDY    69  67  93 W6        29.91R FOG
Newark         MOCLDY    67  67 100 CALM      29.88S FOG
Laguardia      FAIR      74  70  87 S6        29.87S
J F K          MOCLDY    73  73 100 S6        29.89R
Boston         FOG       69  68  96 E5        29.92S VSB<1/4
Pittsburg      CLOUDY    62  62 100 CALM      29.99S
Akron          MOCLDY    67  62  84 CALM      30.01R
Cleveland      MOCLDY    67  64  90 SW5       30.02R
Cincinnati     FAIR      65  64  97 CALM      30.04R
Columbus       FAIR      59  59 100 CALM      30.02R FOG
Detroit        MOCLDY    67  61  81 SW5       29.99R HAZE
Chicago O'Hare FAIR      71  62  73 W6        30.00R
Minneapolis    FAIR      75  67  76 CALM      29.94S
Indianapolis   MOCLDY    67  65  93 SW6       30.03R
Toronto Canada MOCLDY    70  59  68 N10       29.93R